Weather reports worldwide

Advertisment
Konstanz, Germany (10929): temperature & dewpoint: 06.11.2019 07:00:00 - 12.11.2019 07:00:00 (CET)Konstanz, Germany (10929): temperature 5cm & temperature -5cm: 06.11.2019 07:00:00 - 12.11.2019 07:00:00 (CET)Konstanz, Germany (10929): temperature -20cm & temperature -100cm: 06.11.2019 07:00:00 - 12.11.2019 07:00:00 (CET)Konstanz, Germany (10929): wind speed & gusts: 06.11.2019 07:00:00 - 12.11.2019 07:00:00 (CET)Konstanz, Germany (10929): wind direction: 06.11.2019 07:00:00 - 12.11.2019 07:00:00 (CET)Konstanz, Germany (10929): reduced air pressure: 06.11.2019 07:00:00 - 12.11.2019 07:00:00 (CET)Konstanz, Germany (10929): visibility: 06.11.2019 07:00:00 - 12.11.2019 07:00:00 (CET)Konstanz, Germany (10929): sunshine duration: 06.11.2019 07:00:00 - 12.11.2019 07:00:00 (CET)Konstanz, Germany (10929): precipitation: 06.11.2019 07:00:00 - 12.11.2019 07:00:00 (CET)
Date & Time tt [°C] td [°C] tt 5cm [°C] tt -5cm [°C] tt -20cm [°C] tt -100cm [°C] ff [km/h] ff [kn] fx [km/h] fx [kn] dd ppp [hPa] vv [km] sd [min] rr [mm]
12.11.2019 07:00:00 4,6 0,2 3,0 4,9 6,9 11,6 12 6 27 14 WSW 1011,4 70 0 0,0
12.11.2019 06:00:00 4,9 0,5 3,8 5,1 7,0 11,6 16 9 32 17 WSW 1010,7 70 0 0,0
12.11.2019 05:00:00 4,7 2,5 3,6 5,2 7,0 11,6 11 6 26 14 SSW 1010,9 47 0 0,0
12.11.2019 04:00:00 5,0 2,0 4,0 5,4 7,1 11,7 16 9 28 15 SW 1010,8 62 0 0,0
12.11.2019 03:00:00 5,0 2,3 3,9 5,5 7,2 11,7 17 9 27 14 WSW 1010,4 41 0 0,0
12.11.2019 02:00:00 5,0 2,9 3,9 5,7 7,2 11,7 16 9 27 15 SW 1010,4 25 0 0,0
12.11.2019 01:00:00 4,9 3,0 3,8 5,7 7,2 11,7 13 7 26 14 WSW 1010,2 14 0 0,1
12.11.2019 00:00:00 4,9 2,8 3,7 5,7 7,3 11,7 10 5 18 10 WSW 1009,8 12 0 0,1
11.11.2019 23:00:00 4,7 2,8 3,5 5,8 7,4 11,7 4 2 11 6 W 1009,8 16 0 0,0
11.11.2019 22:00:00 5,1 2,5 3,6 6,0 7,4 11,7 8 4 16 8 SSW 1009,1 28 0 0,0
11.11.2019 21:00:00 4,6 2,9 3,7 6,1 7,5 11,7 8 4 15 8 SE 1009,0 12 0 0,3
11.11.2019 20:00:00 4,9 1,9 4,1 6,2 7,5 11,8 8 4 14 8 SSW 1009,7 20 0 0,0
11.11.2019 19:00:00 5,0 1,5 4,3 6,3 7,6 11,8 7 4 12 6 SW 1009,8 23 0 0,0
11.11.2019 18:00:00 4,7 1,7 3,9 6,6 7,6 11,8 3 2 10 5 SSE 1009,5 22 0 0,0
11.11.2019 17:00:00 4,7 1,3 3,8 7,1 7,6 11,8 0 0 6 4 N 1009,6 23 0 0,0
11.11.2019 16:00:00 5,1 0,8 4,8 7,8 7,5 11,8 2 1 9 5 SE 1009,1 25 0 0,0
11.11.2019 15:00:00 5,8 0,2 5,7 8,5 7,2 11,8 4 2 14 8 W 1009,3 27 45 0,0
11.11.2019 14:00:00 5,6 -0,1 7,5 8,4 6,8 11,8 5 3 13 7 SSE 1009,8 30 37 0,0
11.11.2019 13:00:00 5,5 -0,4 6,7 7,2 6,6 11,8 5 3 13 7 SSW 1010,5 27 29 0,0
11.11.2019 12:00:00 4,0 -0,4 4,5 5,7 6,5 11,9 6 4 11 6 W 1012,2 23 0 0,0
11.11.2019 11:00:00 3,5 1,1 3,4 5,0 6,5 11,9 4 2 8 4 N 1013,0 17 0 0,0
11.11.2019 10:00:00 2,9 0,9 2,8 4,7 6,5 11,9 4 2 8 4 ENE 1014,2 15 0 0,0
11.11.2019 09:00:00 2,4 0,6 2,2 4,5 6,5 11,9 4 2 10 5 N 1015,2 14 0 0,0
11.11.2019 08:00:00 2,1 0,4 1,9 4,4 6,5 11,9 5 3 8 5 NNW 1015,5 14 0 0,0
11.11.2019 07:00:00 2,2 0,5 1,9 4,5 6,6 11,9 5 3 8 5 N 1015,7 16 0 0,0
11.11.2019 06:00:00 2,0 0,4 1,7 4,5 6,6 11,9 6 3 10 5 NW 1015,8 15 0 0,0
11.11.2019 05:00:00 1,8 0,2 1,7 4,5 6,7 12,0 5 3 9 5 N 1016,0 14 0 0,0
11.11.2019 04:00:00 1,7 0,4 1,5 4,5 6,8 12,0 5 3 12 7 N 1016,7 11 0 0,0
11.11.2019 03:00:00 1,4 0,1 1,3 4,6 6,8 12,0 7 4 14 8 NNW 1017,0 12 0 0,0
11.11.2019 02:00:00 1,4 0,0 1,4 4,7 6,9 12,0 3 2 10 5 NW 1017,1 13 0 0,0
11.11.2019 01:00:00 1,3 0,2 1,2 4,8 7,0 12,0 9 5 18 10 NE 1017,3 9 0 0,0
11.11.2019 00:00:00 1,9 0,9 1,8 5,1 7,1 12,0 8 4 17 9 NNE 1017,2 7 0 0,0
10.11.2019 23:00:00 2,6 1,5 2,4 5,2 7,1 12,0 7 4 12 7 NNE 1016,8 7 0 0,0
10.11.2019 22:00:00 3,0 1,6 2,7 5,3 7,2 12,1 5 3 10 5 NE 1017,2 11 0 0,0
10.11.2019 21:00:00 2,9 1,3 2,7 5,3 7,2 12,1 6 3 11 6 NNE 1017,1 13 0 0,0
10.11.2019 20:00:00 3,0 1,4 2,7 5,4 7,3 12,1 8 4 13 7 NNE 1017,1 15 0 0,0
10.11.2019 19:00:00 3,1 1,5 2,5 5,6 7,4 12,1 5 3 11 6 NNE 1016,8 15 0 0,0
10.11.2019 18:00:00 3,4 1,5 3,0 5,8 7,5 12,1 7 4 16 8 NNE 1016,2 18 0 0,0
10.11.2019 17:00:00 3,6 1,6 2,7 6,3 7,5 12,1 5 3 13 7 NNE 1015,3 21 6 0,0
10.11.2019 16:00:00 4,2 1,5 3,2 7,1 7,4 12,1 6 4 13 7 NNE 1014,5 24 26 0,0
10.11.2019 15:00:00 5,8 1,5 6,2 7,4 7,1 12,1 7 4 13 7 NE 1013,6 30 20 0,0
10.11.2019 14:00:00 5,1 1,2 5,6 7,3 6,9 12,2 5 3 13 7 NNE 1013,3 30 14 0,0
10.11.2019 13:00:00 4,8 0,5 5,7 6,5 6,7 12,2 4 2 12 7 WSW 1013,1 31 3 0,0
10.11.2019 12:00:00 3,9 0,6 4,4 5,6 6,5 12,2 5 3 11 6 W 1013,2 25 0 0,0
10.11.2019 11:00:00 3,1 1,5 2,8 4,9 6,5 12,2 5 3 10 6 N 1013,3 19 0 0,0
10.11.2019 10:00:00 2,6 1,3 2,3 4,6 6,4 12,2 5 3 12 6 NNE 1012,8 14 0 0,0
10.11.2019 09:00:00 2,2 1,2 1,9 4,3 6,4 12,2 7 4 10 5 NNE 1011,9 12 0 0,0
10.11.2019 08:00:00 2,2 1,2 1,7 4,1 6,5 12,2 5 3 13 7 N 1011,1 13 0 0,0
10.11.2019 07:00:00 2,3 1,4 1,8 4,0 6,5 12,2 6 3 12 6 N 1010,5 15 0 0,0
10.11.2019 06:00:00 2,0 1,3 1,5 3,8 6,7 12,2 7 4 13 7 N 1010,2 13 0 0,0
10.11.2019 05:00:00 1,8 1,4 1,0 3,7 6,8 12,3 8 5 15 8 N 1009,9 7 0 0,0
10.11.2019 04:00:00 1,8 1,5 0,5 3,7 7,0 12,3 8 4 11 6 N 1009,8 4,2 0 0,0
10.11.2019 03:00:00 1,8 1,3 -0,2 4,1 7,2 12,3 8 4 10 5 NNE 1010,1 6 0 0,0
10.11.2019 02:00:00 2,5 2,0 1,5 4,3 7,4 12,3 9 5 12 6 N 1010,1 6 0 0,0
10.11.2019 01:00:00 2,9 2,5 1,6 4,6 7,6 12,3 6 4 12 7 N 1010,0 3,9 0 0,0
10.11.2019 00:00:00 2,7 2,1 0,9 4,9 7,8 12,3 8 4 11 6 N 1010,4 8 0 0,0
09.11.2019 23:00:00 3,7 2,8 1,9 5,4 7,9 12,3 6 3 13 7 NNE 1010,1 10 0 0,0
09.11.2019 22:00:00 4,7 3,4 2,9 5,4 8,1 12,3 6 4 16 9 E 1010,1 19 0 0,0
09.11.2019 21:00:00 3,5 2,4 1,5 5,8 8,3 12,4 6 4 11 6 E 1010,7 15 0 0,0
09.11.2019 20:00:00 4,5 3,0 1,2 6,4 8,5 12,4 4 2 5 3 SSE 1011,0 18 0 0,0
09.11.2019 19:00:00 5,0 3,2 3,4 7,0 8,6 12,4 3 2 5 3 NE 1011,6 29 0 0,0
09.11.2019 18:00:00 5,4 3,4 3,6 7,4 8,6 12,4 2 1 5 3 NNW 1011,6 28 0 0,0
09.11.2019 17:00:00 6,4 3,3 5,1 8,0 8,6 12,4 4 2 9 5 WNW 1011,5 28 0 0,0
09.11.2019 16:00:00 6,9 2,9 6,2 8,5 8,5 12,4 6 3 11 6 NW 1011,8 32 17 0,0
09.11.2019 15:00:00 7,3 3,0 6,9 8,9 8,3 12,4 5 3 11 6 WNW 1011,8 28 15 0,0
09.11.2019 14:00:00 7,1 3,2 7,6 8,5 8,0 12,4 6 3 12 6 NW 1011,9 24 1 0,0
09.11.2019 13:00:00 7,0 3,1 7,6 8,0 7,8 12,5 7 4 14 8 WSW 1012,4 25 0 0,0
09.11.2019 12:00:00 6,4 3,4 6,7 7,4 7,7 12,5 9 5 16 9 WSW 1013,0 20 0 0,0
09.11.2019 11:00:00 5,6 3,3 5,9 6,8 7,6 12,5 7 4 15 8 W 1013,4 14 0 0,0
09.11.2019 10:00:00 5,6 3,5 5,0 6,4 7,5 12,5 6 4 13 7 W 1013,1 13 0 0,0
09.11.2019 09:00:00 4,8 3,1 4,2 5,9 7,5 12,5 8 5 21 11 W 1013,0 11 0 0,0
09.11.2019 08:00:00 4,4 3,0 3,5 5,8 7,6 12,5 7 4 14 8 WSW 1012,8 12 0 0,0
09.11.2019 07:00:00 4,6 3,7 3,9 5,9 7,6 12,5 5 3 9 5 WSW 1012,3 8 0 0,0
09.11.2019 06:00:00 4,4 3,5 3,7 5,9 7,6 12,6 3 2 7 4 W 1011,8 7 0 0,0
09.11.2019 05:00:00 4,5 3,7 3,9 5,9 7,6 12,6 3 1 6 3 N 1011,4 8 0 0,0
09.11.2019 04:00:00 4,4 3,7 3,6 5,9 7,7 12,6 3 2 10 5 WNW 1010,9 8 0 0,0
09.11.2019 03:00:00 4,5 3,5 3,8 5,9 7,7 12,6 5 3 11 6 WNW 1011,0 11 0 0,0
09.11.2019 02:00:00 4,4 3,5 3,7 5,9 7,7 12,6 3 1 8 4 E 1010,9 22 0 0,0
09.11.2019 01:00:00 4,4 2,9 3,5 5,9 7,8 12,6 4 2 16 8 WSW 1010,7 51 0 0,0
09.11.2019 00:00:00 4,3 2,8 3,4 5,9 7,8 12,6 9 5 18 10 W 1010,1 56 0 0,0
08.11.2019 23:00:00 3,9 3,0 3,3 6,0 7,9 12,6 6 4 11 6 W 1010,1 32 0 0,0
08.11.2019 22:00:00 4,1 2,8 3,4 6,1 7,9 12,7 7 4 18 10 WSW 1010,0 20 0 0,3
08.11.2019 21:00:00 4,1 3,1 3,6 6,1 8,0 12,7 7 4 12 7 WSW 1009,1 6 0 0,1
08.11.2019 20:00:00 4,0 2,9 3,7 6,1 8,0 12,7 6 3 12 6 WSW 1008,1 17 0 0,0
08.11.2019 19:00:00 3,8 2,4 3,4 6,1 8,1 12,7 8 5 15 8 WSW 1007,8 27 0 0,0
08.11.2019 18:00:00 3,6 2,6 3,4 6,3 8,1 12,7 5 3 11 6 SSW 1007,7 33 0 0,0
08.11.2019 17:00:00 3,5 2,5 3,2 6,4 8,1 12,7 9 5 16 8 W 1006,9 70 0 0,0
08.11.2019 16:00:00 3,3 2,1 3,1 6,6 8,1 12,8 10 5 18 10 W 1006,5 31 0 0,2
08.11.2019 15:00:00 2,9 1,8 2,7 6,2 8,2 12,8 10 5 23 12 W 1005,9 17 0 1,6
08.11.2019 14:00:00 4,0 2,8 3,6 6,5 8,3 12,8 9 5 19 10 W 1005,5 11 0 1,6
08.11.2019 13:00:00 4,3 3,5 4,1 6,8 8,3 12,8 9 5 17 9 WNW 1004,8 11 0 1,0
08.11.2019 12:00:00 4,3 3,8 4,2 6,8 8,3 12,8 10 6 16 9 W 1004,8 7 0 0,5
08.11.2019 11:00:00 4,4 3,9 4,2 6,7 8,4 12,8 9 5 14 7 W 1004,9 3,0 0 0,2
08.11.2019 10:00:00 4,2 3,6 4,0 6,7 8,4 12,8 7 4 14 7 WNW 1004,8 4,8 0 0,3
08.11.2019 09:00:00 4,4 3,8 4,1 6,7 8,5 12,9 6 3 16 9 WNW 1004,7 3,7 0 0,1
08.11.2019 08:00:00 4,7 3,8 4,2 6,8 8,5 12,9 6 3 11 6 NW 1004,7 19 0 0,0
08.11.2019 07:00:00 4,7 3,4 4,2 6,8 8,6 12,9 8 4 11 6 NW 1004,7 31 0 0,0
08.11.2019 06:00:00 5,0 3,6 4,3 6,9 8,6 12,9 4 2 10 6 N 1005,2 70 0 0,0
08.11.2019 05:00:00 4,8 3,4 3,9 7,0 8,7 12,9 6 3 11 6 NE 1005,5 30 0 0,3
08.11.2019 04:00:00 5,3 4,3 4,6 7,1 8,7 12,9 5 3 12 6 NE 1006,0 45 0 0,1
08.11.2019 03:00:00 5,4 4,4 4,8 7,1 8,7 12,9 3 2 9 5 NNE 1006,4 23 0 2,1
08.11.2019 02:00:00 6,0 5,0 5,3 7,4 8,8 13,0 4 2 6 3 WSW 1006,6 9 0 0,4
08.11.2019 01:00:00 6,2 5,2 5,4 7,5 8,8 13,0 3 2 8 5 SSW 1006,8 31 0 0,1
08.11.2019 00:00:00 6,3 5,2 5,5 7,5 8,9 13,0 4 2 11 6 SW 1007,0 24 0 0,5
07.11.2019 23:00:00 6,5 5,1 5,6 7,4 8,9 13,0 9 5 16 9 SW 1007,2 7 0 2,3
07.11.2019 22:00:00 6,7 5,8 6,0 7,6 9,0 13,0 2 1 5 3 SSW 1007,0 9 0 1,2
07.11.2019 21:00:00 6,9 5,3 5,8 7,7 9,1 13,0 5 3 7 4 W 1006,3 15 0 0,2
07.11.2019 20:00:00 6,8 4,9 5,3 7,6 9,1 13,0 4 2 7 4 SW 1006,2 32 0 0,0
07.11.2019 19:00:00 6,9 4,6 5,3 7,9 9,2 13,0 5 3 7 4 ESE 1006,1 51 0 0,0
07.11.2019 18:00:00 7,1 4,8 5,5 8,2 9,1 13,1 3 2 8 4 SE 1006,0 47 0 0,0
07.11.2019 17:00:00 7,5 4,6 6,2 8,5 9,1 13,1 4 2 8 4 S 1005,3 50 0 0,0
07.11.2019 16:00:00 8,1 4,4 7,7 8,7 8,9 13,1 4 2 14 7 WSW 1005,3 70 1 0,0
07.11.2019 15:00:00 7,9 4,2 7,3 8,5 8,8 13,1 7 4 24 13 WNW 1004,8 54 4 0,0
07.11.2019 14:00:00 7,2 4,4 6,9 8,3 8,7 13,1 8 5 16 9 NW 1004,9 47 0 0,0
07.11.2019 13:00:00 6,7 4,2 6,5 8,2 8,5 13,1 11 6 19 10 WNW 1005,3 34 0 0,0
07.11.2019 12:00:00 6,8 5,0 7,1 8,0 8,3 13,1 12 7 21 11 WNW 1005,1 25 0 0,0
07.11.2019 11:00:00 6,9 5,5 6,8 7,5 8,1 13,1 10 5 14 8 W 1004,3 20 2 0,0
07.11.2019 10:00:00 6,6 4,9 5,7 6,8 8,0 13,1 3 2 7 4 NE 1003,7 31 21 0,0
07.11.2019 09:00:00 5,6 4,6 4,7 5,7 8,1 13,1 3 2 5 3 NE 1004,3 20 39 0,0
07.11.2019 08:00:00 3,4 3,2 2,8 4,9 8,2 13,1 3 2 8 4 W 1005,0 0,1 0 0,0
07.11.2019 07:00:00 3,1 2,6 1,1 5,0 8,4 13,2 5 3 9 5 WNW 1005,1 21 0 0,0
07.11.2019 06:00:00 3,6 2,8 1,3 5,3 8,6 13,2 4 2 9 5 NNW 1005,3 25 0 0,0
07.11.2019 05:00:00 3,4 2,4 1,4 5,6 8,8 13,2 4 2 8 5 ENE 1005,4 45 0 0,0
07.11.2019 04:00:00 4,4 2,4 1,3 5,9 9,0 13,2 2 1 14 8 W 1005,6 70 0 0,0
07.11.2019 03:00:00 5,0 3,0 2,8 6,2 9,2 13,2 0 0 6 3 N 1006,2 70 0 0,0
07.11.2019 02:00:00 5,0 3,0 2,2 6,7 9,3 13,2 3 1 10 5 SSW 1006,7 70 0 0,0
07.11.2019 01:00:00 5,8 3,6 3,6 7,0 9,4 13,2 5 3 9 5 S 1007,3 70 0 0,0
07.11.2019 00:00:00 5,9 4,3 4,4 7,1 9,6 13,2 3 1 8 4 S 1007,7 69 0 0,0
06.11.2019 23:00:00 5,2 3,9 3,4 7,1 9,8 13,2 4 2 8 5 SSW 1008,1 53 0 0,0
06.11.2019 22:00:00 5,4 4,1 3,1 7,5 10,0 13,2 3 2 8 4 E 1008,2 51 0 0,0
06.11.2019 21:00:00 6,7 4,5 4,9 7,9 10,1 13,2 4 2 12 7 WSW 1007,9 70 0 0,0
06.11.2019 20:00:00 6,9 4,4 5,3 8,2 10,3 13,2 9 5 15 8 SW 1007,7 69 0 0,0
06.11.2019 19:00:00 7,5 4,3 5,9 8,5 10,4 13,2 10 6 17 9 WSW 1007,6 70 0 0,0
06.11.2019 18:00:00 7,6 4,5 5,9 8,8 10,5 13,2 7 4 18 10 WSW 1007,3 70 0 0,0
06.11.2019 17:00:00 8,6 4,7 6,7 9,6 10,6 13,2 11 6 21 11 WSW 1006,6 70 15 0,0
06.11.2019 16:00:00 9,3 5,4 8,7 10,0 10,5 13,3 9 5 26 14 WSW 1006,3 70 8 0,0
06.11.2019 15:00:00 9,4 4,9 8,9 10,3 10,5 13,3 17 9 29 16 WSW 1005,9 70 5 0,0
06.11.2019 14:00:00 9,6 4,9 9,5 10,2 10,3 13,3 16 9 35 19 WSW 1005,7 70 2 0,0
06.11.2019 13:00:00 9,0 5,6 8,7 10,2 10,2 13,3 13 7 29 16 WSW 1005,8 70 0 0,0
06.11.2019 12:00:00 8,7 6,1 8,1 10,1 10,0 13,3 14 8 30 16 WSW 1006,0 70 11 0,0
06.11.2019 11:00:00 8,6 6,2 8,2 9,2 9,9 13,3 14 8 26 14 WSW 1005,9 35 4 0,5
06.11.2019 10:00:00 7,9 6,1 7,2 8,8 9,9 13,3 14 8 24 13 WSW 1005,8 48 1 0,2
06.11.2019 09:00:00 7,4 5,6 6,9 8,4 9,9 13,3 13 7 19 11 SW 1005,5 49 0 0,0
06.11.2019 08:00:00 7,1 5,9 6,2 8,3 10,0 13,3 9 5 17 9 SW 1004,5 42 0 0,0
06.11.2019 07:00:00 6,9 6,0 6,2 8,3 10,1 13,3 10 5 20 11 WSW 1004,0 48 0 0,4

tt = temperature
td = dewpoint
tt 5cm = temperature 5cm
tt -5cm = temperature -5cm
tt -20cm = temperature -20cm
tt -100cm = temperature -100cm
ff = wind speed
fx = gusts
dd = wind direction
ppp = reduced air pressure
vv = visibility
sd = sunshine duration
rr = precipitation

Next stations